Tracking 29781 objects as of 14-Oct-2024
HD Live streaming from Space Station
objects crossing your sky now

SL-12 R/B(2)

Track SL-12 R/B(2) now!


NORAD ID: 25660
Int'l Code: 1999-013D
Perigee: 9,446.1 km
Apogee: 36,004.7 km
Inclination: 12.4 °
Period: 823.2 minutes
Semi major axis: 29096 km
RCS: 28.3579 m2 (large)
Launch date: March 21, 1999
Source: Commonwealth of Independent States (former USSR) (CIS)
Launch site: TYURATAM MISSILE AND SPACE COMPLEX (TTMTR)

Note: This is a ROCKET BODY
Your satellite tracking list
Your tracking list is empty




NASA's NSSDC Master Catalog

Two Line Element Set (TLE):
1 25660U 99013D   24288.51507748 -.00000046  00000-0  00000-0 0  9993
2 25660  12.4022 152.4609 4563907 353.8499 189.9681  1.74921934163411
Source of the keplerian elements: AFSPC